Temperature
21 21 21 21 21 21 19 19 21 21 19 16 15 13 11 10 10 9 8 9 9 9 10 12 13 13 14 14 14 15 15 15 15 15 15 15 15 15 15 15 15 15 15 15 15 15 15 16 16
22 22 22 22 21 19 18 19 18 19 19 16 14 13 11 9 8 8 9 9 9 9 10 11 12 13 13 14 14 14 14 14 14 15 15 15 15 15 15 15 15 15 15 15 15 15 15 15 16
23 22 22 21 19 18 18 18 18 18 17 16 13 10 9 8 8 8 8 9 9 9 10 11 12 12 13 13 13 13 13 14 14 14 14 14 14 14 14 14 14 14 14 14 15 15 15 15 15
22 22 23 19 16 16 17 17 19 18 17 15 13 10 8 8 8 8 9 9 9 9 10 10 11 12 12 12 12 12 13 13 13 13 13 13 14 14 14 14 14 14 14 14 14 14 15 15 15
23 23 20 17 16 15 16 16 16 16 16 14 12 10 8 8 9 9 9 9 9 10 10 11 11 11 12 12 12 12 12 12 12 13 13 13 13 13 13 13 13 14 14 14 14 14 14 14 15
24 24 20 17 16 15 14 14 15 14 13 13 13 11 9 9 9 9 9 8 9 9 10 10 11 11 11 11 11 11 12 12 12 12 12 12 12 12 12 12 13 13 13 13 14 14 14 14 14
24 21 19 18 17 16 15 13 13 12 12 11 13 11 9 9 9 9 8 8 8 9 10 10 10 11 11 11 11 11 11 11 11 11 12 12 12 12 12 12 12 12 12 13 13 13 13 14 14
24 22 20 19 17 15 13 13 11 11 10 10 11 10 9 8 8 8 8 8 8 9 9 10 10 10 10 10 10 10 10 10 10 10 11 11 11 12 12 12 12 11 12 12 12 12 13 13 13
24 20 17 18 17 15 14 13 11 10 9 9 8 8 8 8 7 7 8 8 8 8 8 9 9 9 9 9 9 9 8 8 8 8 9 9 10 10 11 11 11 11 11 11 11 12 12 12 13
20 16 15 16 16 15 14 13 12 11 10 9 8 8 7 7 7 7 7 7 7 7 7 7 8 8 8 8 8 8 7 6 6 6 6 6 7 8 8 9 10 10 11 11 11 11 11 12 12
18 15 15 14 14 13 13 12 12 11 9 8 8 7 7 6 6 6 5 5 5 5 6 6 6 6 6 6 6 5 5 5 5 4 4 4 4 5 6 7 8 9 9 10 11 11 11 11 11
16 15 14 14 13 13 11 10 9 9 8 7 7 7 6 5 5 4 4 4 4 5 5 5 4 4 4 4 4 3 3 3 3 3 2 2 2 3 4 4 5 5 6 7 8 9 10 11 11
13 12 12 11 11 11 10 9 9 8 8 7 7 6 6 5 4 4 4 4 4 4 3 3 3 3 3 3 2 2 1 1 1 1 1 0 1 1 1 2 3 3 3 4 6 7 8 9 10
13 12 12 12 11 11 10 10 9 8 8 8 7 6 6 5 4 4 4 3 3 2 2 2 2 3 2 2 1 1 1 0 -0 -0 -1 -1 -1 -1 -1 0 1 1 1 2 3 4 5 6 7
13 13 13 12 12 11 11 9 9 8 8 8 8 7 6 5 4 3 3 2 2 1 1 1 1 1 1 1 0 0 -0 -0 -1 -1 -2 -2 -2 -2 -2 -2 -1 -1 -1 0 1 2 3 4 5
16 15 14 13 13 12 11 10 9 8 9 8 8 7 6 5 4 3 2 2 1 1 1 0 -0 -0 -0 -0 -1 -1 -1 -1 -2 -2 -2 -3 -3 -3 -3 -3 -3 -3 -3 -2 -1 -0 1 2 3
17 18 15 13 14 14 12 10 9 8 8 8 8 7 6 5 4 3 2 2 1 0 -0 -1 -1 -1 -1 -1 -1 -2 -2 -2 -3 -3 -3 -4 -4 -4 -4 -4 -4 -4 -4 -3 -3 -2 -2 -0 1
19 20 18 14 13 13 13 9 8 8 8 9 8 7 6 5 4 3 2 1 0 -1 -1 -1 -2 -2 -2 -2 -2 -2 -2 -3 -4 -4 -4 -5 -5 -5 -5 -5 -5 -5 -5 -5 -4 -4 -3 -2 -1
19 19 17 13 12 12 12 9 8 8 8 8 8 7 6 5 4 3 2 1 -0 -1 -2 -2 -3 -3 -4 -4 -4 -4 -4 -4 -5 -5 -5 -6 -6 -6 -6 -6 -6 -6 -6 -6 -6 -5 -5 -4 -3
19 19 17 12 11 12 11 10 9 8 8 7 7 7 6 5 4 3 2 0 -1 -2 -3 -3 -4 -4 -5 -5 -5 -6 -6 -6 -6 -6 -6 -7 -7 -7 -7 -7 -7 -7 -7 -7 -6 -6 -6 -5 -5
19 17 15 15 11 11 11 10 9 8 8 7 7 7 6 5 4 2 1 -0 -2 -3 -3 -4 -4 -5 -5 -6 -6 -6 -6 -6 -6 -6 -7 -7 -8 -8 -8 -8 -8 -8 -8 -7 -7 -6 -6 -5 -5
17 14 14 14 11 12 10 10 9 7 7 7 7 7 5 4 3 2 1 -1 -2 -3 -4 -4 -5 -5 -6 -6 -7 -7 -8 -8 -8 -8 -8 -8 -8 -9 -9 -9 -9 -9 -9 -8 -8 -7 -6 -6 -5
15 14 14 14 13 12 11 11 10 8 7 7 7 6 5 4 3 1 -0 -1 -3 -4 -4 -5 -5 -6 -6 -7 -7 -8 -8 -9 -9 -9 -9 -9 -9 -10 -10 -10 -10 -9 -9 -9 -8 -7 -7 -6 -5
14 14 14 13 13 13 14 12 10 8 8 7 6 6 5 4 2 1 -1 -2 -3 -4 -5 -5 -6 -6 -7 -7 -8 -8 -9 -9 -9 -9 -9 -10 -10 -10 -10 -10 -10 -10 -10 -9 -8 -8 -7 -6 -6
15 14 14 14 13 14 14 14 8 7 6 6 6 5 4 3 2 0 -1 -2 -3 -4 -5 -5 -6 -6 -7 -8 -8 -9 -9 -10 -10 -10 -11 -11 -11 -11 -11 -11 -11 -11 -10 -10 -9 -8 -7 -6 -6
15 15 13 13 14 14 14 12 6 6 6 6 6 5 4 2 1 -1 -2 -3 -4 -5 -5 -5 -6 -7 -7 -8 -8 -9 -10 -10 -11 -11 -11 -11 -11 -12 -12 -12 -11 -11 -11 -10 -9 -8 -7 -7 -6
14 14 13 12 13 13 14 6 6 6 6 6 6 4 3 2 0 -1 -2 -3 -4 -5 -5 -6 -6 -7 -8 -8 -9 -10 -10 -11 -11 -11 -11 -12 -12 -12 -12 -12 -12 -12 -11 -10 -9 -9 -8 -7 -7
14 13 12 13 12 12 13 12 7 6 6 6 5 4 2 1 -0 -2 -3 -4 -4 -5 -6 -6 -7 -8 -9 -9 -9 -10 -11 -11 -12 -12 -12 -12 -12 -12 -12 -12 -12 -12 -12 -11 -10 -9 -8 -8 -7
14 14 14 13 12 11 10 10 7 5 5 5 5 3 2 0 -1 -2 -3 -4 -5 -5 -6 -7 -8 -8 -9 -9 -10 -11 -11 -12 -12 -12 -12 -12 -13 -13 -13 -13 -13 -13 -12 -11 -10 -9 -9 -8 -8
12 13 13 12 12 12 11 8 7 5 6 5 4 3 1 -0 -2 -3 -4 -4 -5 -6 -6 -7 -8 -9 -9 -10 -10 -11 -12 -12 -12 -13 -13 -13 -13 -13 -13 -13 -13 -13 -12 -12 -11 -10 -9 -8 -8
Wind_Speed
18 16 6 2 1 9 17 15 16 11 9 19 17 15 14 13 10 7 6 13 18 15 20 26 30 32 33 33 32 31 31 30 30 28 27 24 21 19 17 16 15 15 14 13 13 13 12 12 11
13 11 4 2 7 12 14 14 18 20 13 12 15 15 13 12 8 4 7 14 18 15 19 26 29 31 32 32 32 32 31 31 31 30 28 27 25 23 21 19 17 17 16 14 15 14 13 12 12
10 7 2 5 12 11 10 11 12 20 21 11 9 10 8 7 6 5 8 15 15 17 20 26 30 30 31 32 31 32 31 31 31 31 30 28 27 26 24 22 20 18 17 16 15 15 14 13 12
5 3 5 12 18 16 13 13 9 12 14 15 11 10 7 5 2 5 8 14 15 19 23 26 30 30 30 30 31 30 31 31 31 31 31 29 28 27 26 25 24 21 20 18 16 16 14 13 12
4 4 10 11 13 11 14 16 20 19 10 14 13 9 6 3 1 3 8 15 14 18 23 26 30 31 31 29 30 30 30 31 30 30 31 30 28 27 27 26 26 25 23 21 19 17 15 14 13
3 5 10 12 14 12 13 16 15 17 14 11 10 9 6 6 6 7 10 14 19 20 23 26 29 31 32 30 30 29 28 29 29 29 31 30 28 27 27 27 27 26 25 24 22 19 16 14 14
9 10 12 14 11 8 8 9 14 12 11 12 8 8 6 10 9 9 10 15 18 22 23 26 28 30 32 31 31 31 29 28 29 28 30 30 29 28 27 27 28 27 27 26 24 22 19 17 15
2 7 12 10 8 6 7 8 9 11 9 9 12 8 7 9 10 10 9 10 13 19 23 26 28 29 30 28 29 30 29 29 30 28 30 29 29 28 28 28 29 28 28 27 26 24 23 20 18
7 9 9 7 7 8 9 8 8 10 13 15 14 13 10 10 10 10 10 11 14 17 20 25 27 28 29 27 27 27 27 27 28 27 29 27 26 25 25 28 29 29 29 28 27 28 26 23 18
9 5 8 10 10 11 12 11 9 9 14 14 11 12 11 10 11 11 14 15 17 17 16 23 25 27 28 26 26 25 24 25 26 26 27 25 25 24 25 27 28 28 28 26 27 29 26 22 17
7 8 9 13 15 15 14 12 10 10 9 11 10 10 10 11 12 13 13 13 13 13 15 19 24 25 26 24 23 22 22 23 24 26 26 25 23 23 23 23 23 25 24 22 24 24 21 21 18
8 13 11 10 11 12 10 8 9 13 8 9 9 9 10 11 12 13 13 12 12 13 15 17 24 24 24 24 22 22 21 21 22 24 25 23 19 20 21 20 22 21 19 19 20 18 20 21 21
10 10 14 17 17 17 16 13 11 10 9 8 9 10 10 11 11 11 12 13 14 14 16 14 22 23 24 22 21 21 20 21 23 23 23 23 19 17 19 19 20 21 20 19 17 16 16 15 16
13 16 14 12 11 9 12 10 7 7 7 7 8 9 9 10 11 11 12 13 14 14 14 14 20 24 25 22 20 20 21 22 22 21 23 23 22 20 18 17 18 18 20 21 18 16 13 11 12
17 12 11 8 8 9 9 8 7 7 6 6 7 8 9 9 10 10 10 11 12 13 14 14 20 25 25 23 22 21 22 23 21 21 22 23 25 23 21 16 14 17 21 21 18 16 13 11 12
8 8 7 7 8 7 5 4 8 6 4 5 6 7 7 8 10 9 10 10 11 12 14 13 21 22 23 22 21 21 22 23 22 22 21 23 25 25 22 17 15 20 21 17 11 11 12 12 13
8 7 8 6 2 4 6 5 8 5 4 4 5 6 7 8 10 9 10 11 12 12 13 13 15 18 21 21 22 21 21 21 22 21 21 24 24 25 23 19 18 22 18 13 12 12 12 13 13
6 6 6 7 3 4 4 7 8 6 4 3 5 6 7 8 9 9 9 10 11 11 11 12 13 17 20 19 19 17 17 19 21 20 21 25 24 25 24 19 20 21 14 12 13 14 13 12 13
6 6 5 5 3 3 4 8 9 7 5 1 4 5 5 7 8 9 9 10 10 11 12 12 13 13 14 11 12 12 13 12 14 20 24 25 25 25 23 18 18 18 12 14 15 15 15 13 12
4 5 3 5 4 3 3 7 10 8 5 4 4 5 5 7 8 9 9 9 9 10 11 11 12 12 12 11 10 9 10 9 14 19 22 23 25 25 22 19 14 15 12 15 15 15 12 12 11
3 5 5 3 5 4 3 7 12 10 6 6 5 2 6 9 9 9 8 9 9 9 10 12 11 11 13 17 13 12 7 9 9 11 9 21 25 24 23 21 18 15 12 13 15 15 15 13 12
4 6 6 4 2 4 7 3 8 10 8 8 4 4 8 8 8 8 8 9 9 9 9 9 10 10 12 15 11 13 11 11 13 11 10 19 23 23 23 22 21 16 13 14 14 14 14 13 11
5 3 5 6 4 4 6 5 5 9 8 7 5 7 7 7 8 8 8 8 8 8 8 9 10 9 11 13 10 11 11 10 10 11 12 10 17 20 22 23 21 17 13 13 15 16 14 12 12
6 7 6 4 3 5 4 6 4 3 6 7 7 7 7 8 8 8 8 7 7 7 7 8 9 10 9 9 9 11 12 13 14 14 12 12 10 13 19 23 21 19 15 14 15 15 16 13 13
5 6 3 3 4 4 2 2 5 7 11 8 5 6 7 8 8 8 8 8 8 8 8 8 10 10 10 10 10 11 11 11 12 13 12 13 12 11 10 20 18 17 18 19 18 16 15 14 13
6 5 4 5 6 6 4 3 6 9 8 4 3 6 8 8 7 8 8 8 7 8 9 9 10 10 11 11 11 9 9 9 9 11 12 12 11 11 16 20 20 20 21 20 18 15 15 14 13
7 5 2 4 6 6 1 7 6 7 6 3 5 7 8 8 8 8 8 7 7 8 8 9 10 11 11 11 11 10 9 10 10 10 9 8 11 16 19 20 18 20 20 19 17 14 16 15 12
3 4 4 4 5 6 9 3 5 8 4 4 6 7 8 7 7 8 7 7 7 7 8 9 9 10 10 11 11 14 10 10 10 9 12 11 14 18 16 15 17 17 18 18 16 15 16 17 12
2 3 2 4 4 3 6 1 5 8 4 3 5 7 7 7 7 7 7 7 8 8 8 8 9 9 10 10 10 11 11 10 11 9 11 12 14 16 14 15 15 17 17 16 17 17 19 17 13
3 4 4 4 5 3 5 1 7 7 4 3 5 7 7 8 7 7 8 8 8 9 9 9 9 10 10 10 10 11 11 10 12 12 12 16 14 15 16 16 16 18 18 18 17 18 20 17 14
Wind_Direction
309 299 274 255 70 71 65 50 44 63 81 60 59 70 75 57 47 70 289 305 327 345 9 9 19 24 25 25 24 23 22 21 19 15 12 6 358 351 345 338 336 333 330 327 320 314 305 296 291
302 299 300 277 87 81 67 57 52 43 91 87 57 57 65 63 47 30 316 322 335 357 21 15 20 24 25 24 24 23 22 21 20 16 12 9 6 2 356 347 341 337 330 323 317 311 305 295 284
279 271 282 49 62 61 65 43 79 61 48 65 74 49 49 42 24 347 318 325 350 11 22 20 19 21 23 23 22 21 20 19 18 16 14 11 8 6 4 359 351 344 336 325 315 308 304 298 287
296 260 74 75 73 49 45 27 26 88 58 53 80 70 70 40 346 318 334 359 12 18 17 19 19 17 18 20 18 18 17 16 16 14 12 10 8 7 6 5 1 353 345 334 321 310 302 298 293
231 78 80 84 78 63 43 47 49 59 62 63 77 89 83 48 56 18 20 22 20 17 16 15 17 15 13 14 14 12 13 12 11 12 9 6 5 5 5 5 2 357 351 343 331 317 306 298 295
259 95 96 95 102 93 60 39 56 62 56 46 90 103 75 48 34 45 39 31 26 18 17 15 14 12 9 7 9 6 7 8 6 8 7 3 2 1 1 2 359 356 352 347 339 328 313 303 297
67 81 101 112 107 82 69 62 46 56 44 13 19 92 81 37 25 39 45 33 28 22 18 15 13 10 6 2 3 1 1 4 2 4 4 1 359 358 357 358 354 352 350 347 342 336 323 307 295
41 100 100 98 93 95 76 70 56 45 50 28 29 68 64 32 32 29 38 34 25 24 19 15 11 8 4 357 359 358 357 1 359 359 1 360 357 355 353 353 349 349 348 345 344 342 332 318 299
54 73 54 43 100 114 124 106 85 83 79 69 65 69 65 42 36 32 27 26 22 20 16 14 8 6 2 357 357 354 355 358 356 355 356 357 354 352 349 349 345 347 345 345 347 344 337 329 311
38 70 54 42 81 99 91 91 108 90 75 77 76 68 60 50 36 31 27 21 18 14 11 12 6 5 2 357 355 352 353 355 354 352 352 355 354 350 349 345 343 344 342 347 346 342 340 337 325
54 89 92 70 81 90 87 70 66 105 67 64 69 67 52 49 41 32 28 23 19 13 10 10 5 4 2 356 353 351 351 353 350 348 351 354 353 349 347 344 339 339 340 347 344 341 336 332 326
80 73 93 98 93 93 89 82 62 69 92 85 73 64 56 44 43 33 24 19 16 13 11 8 2 3 0 355 352 350 350 350 347 344 350 354 354 349 346 342 336 336 339 344 341 332 329 330 326
86 85 76 80 80 86 92 92 95 99 105 99 84 67 56 50 41 38 26 20 15 13 10 6 0 3 358 355 353 350 349 348 344 343 348 354 355 347 344 338 336 333 341 342 333 328 329 329 326
110 112 114 110 110 107 106 108 104 116 122 109 90 72 59 53 46 35 27 19 13 11 8 3 0 3 358 355 352 349 347 346 343 342 345 354 355 344 341 335 333 333 341 335 329 328 328 325 325
122 116 120 129 125 143 132 100 109 133 143 121 101 90 75 59 55 39 32 23 13 10 8 4 1 1 357 351 351 349 347 345 341 341 345 353 351 343 341 334 330 333 336 332 329 327 329 328 328
160 151 138 157 163 170 262 157 137 154 142 105 84 77 68 65 57 44 34 27 16 11 9 6 1 358 355 350 351 348 346 344 341 341 346 351 347 344 342 335 329 333 335 331 329 333 335 331 327
201 212 134 151 170 177 236 132 143 163 167 134 88 66 53 52 49 44 34 32 19 14 8 3 0 357 353 350 350 344 345 342 338 340 346 347 345 344 341 332 332 335 334 332 333 335 332 330 326
350 344 115 135 135 229 239 120 141 175 197 140 93 63 51 46 46 44 35 36 23 15 8 0 358 356 353 352 347 342 343 340 337 339 346 345 343 343 338 333 336 335 331 331 331 329 331 327 324
340 353 69 113 120 271 223 150 161 171 198 151 55 28 27 48 43 41 37 36 23 14 6 358 357 353 353 353 346 343 340 336 333 341 344 340 341 340 336 337 336 333 329 327 326 328 325 326 325
343 335 70 133 132 264 220 191 167 173 178 78 10 341 355 36 30 26 26 32 23 15 4 354 356 350 353 351 342 337 330 327 331 338 335 337 339 338 337 337 336 333 328 325 325 325 321 321 330
340 21 356 340 133 244 260 234 176 167 154 154 227 280 28 31 25 16 19 26 20 17 4 353 350 347 349 349 342 338 327 330 335 336 333 338 338 336 335 334 335 332 329 324 323 321 320 319 316
23 34 326 284 224 228 175 273 166 165 178 195 192 60 41 38 24 18 23 22 18 17 3 349 345 344 347 348 342 341 340 337 335 333 330 335 335 333 335 336 336 331 328 324 322 322 316 311 310
337 340 287 275 242 272 193 245 128 151 191 181 104 56 40 35 28 29 27 20 17 15 1 347 343 343 344 346 341 339 334 332 330 330 330 331 331 333 335 336 333 330 327 324 321 318 311 308 304
290 264 233 250 244 264 199 186 153 181 160 106 64 38 29 26 30 31 21 16 15 11 358 346 343 342 342 343 339 338 335 334 333 334 333 332 330 332 334 334 331 328 327 325 322 316 310 305 301
313 323 300 260 226 220 97 223 95 80 75 75 50 26 32 26 28 22 12 11 9 0 353 347 345 341 342 342 341 336 334 332 331 333 330 331 332 332 329 333 329 329 328 327 325 319 315 307 303
323 345 16 318 311 316 215 138 113 107 102 100 55 45 33 26 29 24 15 14 4 354 350 348 345 341 341 341 338 331 331 330 328 328 327 328 329 326 327 331 330 330 329 329 328 322 320 313 311
342 33 21 282 278 276 234 98 134 136 154 109 43 41 32 30 32 22 11 9 359 353 351 347 344 339 339 339 335 329 330 327 326 325 324 326 327 328 331 332 333 331 330 330 329 323 323 319 314
351 337 315 300 324 308 296 115 170 169 133 41 22 37 31 34 31 16 8 4 357 354 348 346 342 337 335 336 335 334 327 325 327 326 328 328 327 328 330 333 333 331 330 331 329 324 325 322 319
213 228 267 276 247 269 295 328 100 118 102 23 27 47 39 37 31 14 6 358 353 353 349 343 340 338 336 334 331 327 326 328 331 329 328 327 325 328 332 333 332 332 330 330 328 326 327 324 322
328 326 334 302 304 283 282 293 126 137 154 78 52 57 52 48 33 16 6 354 351 350 347 344 340 340 336 332 330 328 329 330 331 329 329 328 324 328 332 332 332 331 329 326 325 325 326 322 321
Height
1522 1521 1523 1526 1529 1539 1554 1557 1551 1550 1559 1567 1565 1569 1579 1587 1593 1605 1604 1597 1595 1592 1588 1583 1580 1577 1574 1572 1569 1567 1564 1562 1560 1558 1556 1555 1553 1551 1550 1548 1547 1545 1544 1543 1543 1543 1543 1542 1542
1523 1522 1526 1528 1537 1556 1566 1563 1562 1561 1563 1567 1571 1577 1583 1593 1599 1602 1600 1598 1597 1594 1590 1585 1581 1578 1575 1572 1569 1567 1565 1562 1560 1558 1556 1554 1552 1550 1548 1546 1545 1543 1542 1541 1540 1540 1540 1539 1539
1524 1525 1530 1536 1550 1564 1571 1570 1567 1568 1569 1570 1578 1585 1592 1601 1603 1604 1602 1600 1598 1595 1591 1586 1582 1578 1575 1572 1569 1566 1564 1562 1559 1557 1555 1553 1550 1548 1546 1544 1542 1541 1540 1538 1537 1537 1536 1536 1536
1525 1529 1535 1552 1569 1576 1576 1574 1568 1569 1573 1578 1582 1592 1601 1606 1606 1605 1604 1602 1599 1595 1591 1587 1583 1579 1576 1573 1570 1567 1564 1561 1559 1556 1554 1551 1549 1546 1544 1542 1540 1538 1537 1536 1535 1534 1533 1533 1533
1529 1532 1545 1564 1575 1582 1580 1578 1575 1574 1579 1586 1586 1598 1605 1608 1607 1607 1605 1602 1598 1595 1591 1588 1584 1581 1577 1574 1571 1568 1565 1561 1558 1555 1553 1550 1547 1544 1542 1540 1538 1536 1534 1533 1532 1531 1530 1529 1529
1532 1534 1553 1571 1578 1583 1585 1584 1582 1584 1587 1589 1592 1597 1608 1610 1609 1607 1604 1602 1598 1595 1591 1588 1584 1581 1578 1574 1571 1568 1565 1561 1558 1555 1552 1549 1546 1543 1540 1537 1535 1533 1531 1530 1528 1527 1526 1526 1525
1534 1541 1557 1568 1576 1582 1586 1588 1589 1591 1592 1593 1593 1599 1608 1610 1609 1608 1605 1602 1598 1595 1591 1587 1584 1581 1578 1574 1571 1568 1564 1560 1557 1553 1550 1547 1544 1541 1538 1534 1532 1529 1527 1526 1524 1523 1522 1522 1521
1538 1544 1557 1565 1574 1584 1590 1591 1595 1595 1597 1598 1597 1602 1610 1611 1609 1607 1605 1601 1598 1594 1590 1586 1583 1579 1576 1573 1569 1566 1562 1558 1555 1551 1547 1543 1540 1537 1534 1531 1529 1526 1523 1521 1520 1518 1517 1517 1517
1540 1554 1568 1569 1576 1584 1589 1592 1597 1602 1602 1603 1605 1608 1611 1611 1609 1606 1604 1600 1596 1593 1589 1585 1582 1578 1574 1570 1567 1563 1559 1555 1551 1547 1543 1539 1536 1533 1530 1527 1524 1522 1519 1517 1515 1513 1512 1512 1511
1550 1567 1579 1578 1578 1585 1590 1593 1598 1604 1605 1607 1609 1610 1611 1610 1608 1605 1602 1599 1595 1592 1589 1585 1581 1577 1573 1569 1564 1560 1556 1552 1548 1544 1540 1536 1532 1529 1525 1522 1520 1517 1514 1512 1510 1508 1507 1506 1506
1562 1575 1583 1586 1587 1590 1593 1597 1600 1604 1609 1611 1611 1612 1611 1610 1608 1605 1603 1601 1598 1594 1590 1585 1581 1576 1571 1566 1562 1557 1554 1550 1546 1542 1538 1533 1529 1525 1521 1517 1514 1512 1509 1506 1504 1503 1502 1500 1500
1571 1580 1585 1590 1592 1594 1596 1600 1604 1605 1611 1612 1613 1613 1612 1611 1609 1607 1605 1602 1599 1594 1590 1585 1580 1574 1569 1564 1560 1556 1552 1548 1544 1540 1536 1531 1526 1521 1517 1514 1511 1508 1504 1501 1499 1497 1496 1495 1494
1578 1587 1590 1593 1594 1597 1599 1602 1605 1610 1612 1614 1614 1614 1614 1612 1611 1609 1606 1603 1599 1594 1589 1584 1578 1573 1567 1562 1558 1554 1550 1546 1542 1538 1535 1530 1524 1519 1515 1511 1508 1505 1502 1498 1494 1492 1490 1488 1488
1581 1588 1593 1596 1597 1599 1601 1604 1607 1612 1613 1614 1615 1615 1614 1613 1611 1609 1605 1602 1598 1594 1588 1583 1578 1573 1567 1562 1558 1553 1549 1545 1540 1537 1533 1529 1523 1518 1513 1508 1505 1502 1498 1495 1491 1488 1485 1483 1482
1583 1589 1594 1597 1598 1600 1600 1606 1609 1612 1613 1614 1614 1615 1614 1614 1611 1609 1606 1602 1598 1593 1588 1582 1577 1572 1567 1562 1558 1553 1548 1544 1539 1535 1531 1527 1521 1517 1512 1507 1503 1499 1495 1491 1488 1485 1481 1478 1476
1581 1585 1590 1594 1595 1597 1602 1603 1609 1611 1612 1614 1614 1615 1614 1613 1611 1609 1606 1602 1598 1593 1587 1582 1577 1571 1566 1561 1557 1552 1547 1542 1537 1533 1529 1524 1519 1515 1510 1505 1501 1497 1492 1489 1485 1481 1477 1474 1471
1577 1576 1586 1593 1593 1594 1597 1600 1608 1610 1612 1613 1614 1614 1614 1613 1611 1609 1606 1602 1597 1592 1587 1581 1576 1570 1565 1560 1555 1550 1545 1540 1535 1531 1527 1522 1517 1512 1507 1503 1499 1494 1490 1486 1483 1478 1474 1470 1466
1575 1568 1575 1588 1593 1593 1594 1601 1607 1610 1611 1612 1613 1613 1613 1613 1611 1609 1606 1601 1597 1592 1586 1581 1575 1569 1563 1558 1553 1548 1543 1538 1533 1530 1525 1520 1515 1510 1505 1500 1496 1491 1487 1483 1480 1476 1472 1468 1463
1571 1571 1577 1589 1593 1593 1593 1600 1606 1609 1611 1611 1612 1613 1613 1612 1611 1608 1605 1600 1595 1590 1585 1580 1574 1568 1563 1557 1551 1545 1540 1536 1531 1528 1523 1518 1513 1508 1503 1498 1493 1489 1485 1481 1478 1474 1469 1465 1461
1571 1574 1578 1590 1592 1592 1593 1597 1602 1606 1609 1610 1612 1612 1612 1610 1609 1607 1604 1599 1594 1589 1584 1579 1573 1568 1563 1557 1552 1547 1541 1536 1531 1526 1521 1516 1511 1506 1501 1496 1492 1487 1483 1479 1476 1472 1468 1464 1462
1573 1580 1584 1585 1592 1593 1594 1595 1598 1603 1606 1609 1611 1611 1610 1609 1608 1606 1602 1598 1594 1589 1583 1578 1572 1567 1562 1557 1551 1544 1539 1533 1527 1521 1516 1512 1508 1503 1499 1495 1490 1485 1481 1477 1473 1470 1466 1462 1460
1580 1585 1585 1583 1592 1589 1595 1595 1595 1600 1604 1607 1608 1609 1609 1608 1607 1604 1601 1597 1593 1588 1582 1577 1572 1567 1561 1555 1549 1543 1537 1531 1526 1520 1515 1510 1505 1500 1496 1492 1487 1483 1478 1474 1471 1467 1464 1460 1457
1584 1583 1584 1583 1587 1588 1590 1593 1593 1598 1602 1604 1606 1607 1608 1607 1605 1603 1600 1596 1592 1587 1581 1576 1571 1565 1560 1554 1548 1542 1537 1531 1525 1519 1513 1507 1502 1498 1494 1489 1484 1479 1475 1471 1467 1463 1460 1457 1454
1584 1582 1582 1584 1588 1590 1574 1587 1588 1596 1597 1602 1605 1606 1607 1606 1604 1601 1599 1595 1591 1585 1580 1574 1569 1564 1558 1552 1547 1541 1535 1529 1523 1516 1510 1504 1499 1495 1490 1486 1481 1476 1471 1467 1463 1459 1456 1453 1450
1584 1585 1587 1587 1589 1581 1572 1576 1595 1600 1600 1603 1606 1606 1606 1605 1602 1600 1597 1593 1588 1583 1578 1573 1567 1562 1556 1550 1545 1539 1534 1528 1522 1515 1509 1503 1497 1492 1487 1482 1477 1472 1468 1463 1459 1454 1451 1448 1446
1586 1588 1600 1604 1590 1579 1571 1582 1603 1601 1603 1605 1605 1605 1604 1603 1601 1598 1595 1591 1586 1581 1576 1571 1566 1560 1554 1548 1542 1537 1531 1526 1520 1514 1509 1503 1497 1491 1485 1480 1474 1469 1464 1459 1455 1450 1447 1444 1441
1591 1592 1594 1599 1590 1587 1572 1601 1604 1602 1603 1604 1604 1603 1603 1601 1600 1597 1594 1589 1585 1580 1575 1570 1564 1558 1552 1546 1540 1534 1529 1524 1518 1512 1507 1501 1495 1489 1483 1477 1471 1466 1461 1456 1451 1446 1442 1439 1436
1593 1594 1596 1596 1600 1598 1578 1577 1595 1601 1601 1602 1602 1602 1601 1600 1598 1596 1592 1588 1584 1579 1574 1569 1563 1557 1551 1545 1538 1533 1527 1521 1516 1509 1504 1498 1492 1486 1480 1474 1468 1462 1457 1453 1448 1443 1439 1435 1432
1593 1593 1592 1595 1596 1603 1598 1592 1594 1599 1601 1601 1601 1601 1600 1599 1597 1594 1590 1587 1582 1578 1572 1567 1561 1555 1549 1542 1536 1530 1524 1519 1513 1507 1501 1495 1489 1484 1478 1472 1465 1460 1454 1449 1445 1440 1436 1432 1428
1594 1593 1595 1602 1596 1590 1595 1599 1597 1598 1599 1599 1600 1599 1598 1597 1595 1592 1589 1585 1580 1575 1570 1565 1559 1553 1547 1540 1534 1528 1522 1516 1510 1503 1498 1492 1487 1482 1476 1469 1463 1457 1451 1446 1442 1437 1433 1429 1425